Voltar ao catálogo

VELA 1

AtivoMilitarHEO
NORAD 692·PAYLOAD·🇺🇸 United States

Lançado Oct 17, 1963 de Cape Canaveral Space Force Station

Loading…

Próximas Passagens (próximas 24 horas)

TLE

EnvelhecendoSource: Space-Track

Época: Sep 3, 2026, 15:22 UTC

1 00692U 63039C   26246.64073463 -.00000560  00000-0  00000-0 0  9993
2 00692  33.7681  45.3484 5262132 227.7809   0.9690  0.21985686 13341

Acompanhe VELA 1 em tempo real com AllMySat

Download on the App Store